Location: Normandy Village
(37.8755°N, 122.2655°W)
Time: 05:01:03
(UTC+00:00)

ATLAS 3B R/B - Pass Details

Date: 15 December 2019
Orbit: 1027 x 1168 km, 63.8° (Epoch: 19 January)

Event Time Altitude Azimuth Distance (km) Brightness Sun altitude
Rises 13:30:46 0° 183° (S) 3,833 5.8 -20.3°
Reaches altitude 10° 13:33:39 10° 174° (S) 2,863 5.2 -19.8°
Maximum altitude 13:39:36 34° 112° (ESE) 1,632 4.3 -18.7°
Drops below altitude 10° 13:45:28 10° 50° (NE) 2,828 5.4 -17.5°
Sets 13:48:17 0° 42° (NE) 3,780 5.9 -17.0°
